Weather History for KAEL - February, 2013

Change the Weather History Date:

Friday, February 22, 2013

  Actual Average Record
Temperature  
Mean Temperature 22 °F -  
Max Temperature 26 °F 29 °F 44 °F (1998)
Min Temperature 19 °F 16 °F -7 °F (2015)
Degree Days  
Heating Degree Days 42    
Moisture  
Dew Point 20 °F    
Average Humidity 91    
Maximum Humidity 100    
Minimum Humidity 80    
Precipitation  
Precipitation 0.04 in - - ()
Sea Level Pressure  
Sea Level Pressure 29.85 in    
Wind  
Wind Speed 9 mph (NNW)    
Max Wind Speed 13 mph    
Max Gust Speed -    
Visibility 5 miles    
Events Snow    
Averages and records for this station are not official NWS values.
T = Trace of Precipitation, MM = Missing Value Source: NWS Daily Summary

Daily Weather History Graph

Daily Weather History Graph

Search for Another Location

Airport or City:

Trip Planner

Search our weather history database for the weather conditions in past years. The results will help you decide how hot, cold, wet, or windy it might be!

Date:

Astronomy

Feb. 22, 2013 Rise Set
Actual Time 7:01 AM CST 5:53 PM CST
Civil Twilight 6:31 AM CST 6:22 PM CST
Nautical Twilight 5:58 AM CST 6:55 PM CST
Astronomical Twilight 5:25 AM CST 7:29 PM CST
Moon 3:01 PM CST (2/22) 4:50 AM CST (2/22)
Length of Visible Light 11h 50m
Length of Day
10h 52m
Waxing Gibbous, 90% of the Moon is Illuminated
Feb 22
Waxing Gibbous
Feb 25
Full
Mar 4
Last Quarter
Mar 11
New
Mar 19
First Quarter

Hourly Weather History & Observations

Time (CST) Temp. Windchill Dew Point Humidity Pressure Visibility Wind Dir Wind Speed Gust Speed Precip Events Conditions
12:15 AM 19.4 °F 7.2 °F 17.6 °F 93% 29.94 in 0.8 mi NE 11.5 mph - 0.01 in Snow Snow
12:34 AM 19.4 °F 7.9 °F 17.6 °F 93% 29.93 in 0.5 mi NE 10.4 mph - 0.01 in Snow Heavy Snow
12:55 AM 19.4 °F 7.2 °F 17.6 °F 93% 29.92 in 1.2 mi NE 11.5 mph - N/A Snow Light Snow
1:15 AM 19.4 °F 7.2 °F 19.4 °F 100% 29.92 in 0.8 mi NE 11.5 mph - 0.01 in Snow Snow
1:34 AM 19.4 °F 7.9 °F 19.4 °F 100% 29.91 in 0.8 mi NE 10.4 mph - 0.01 in Snow Snow
1:55 AM 19.4 °F 8.6 °F 19.4 °F 100% 29.90 in 0.5 mi NE 9.2 mph - N/A Snow Heavy Snow
2:15 AM 19.4 °F 7.2 °F 19.4 °F 100% 29.89 in 0.5 mi NE 11.5 mph - 0.01 in Snow Heavy Snow
2:34 AM 19.4 °F 8.6 °F 19.4 °F 100% 29.87 in 0.5 mi NE 9.2 mph - 0.01 in Snow Heavy Snow
2:55 AM 19.4 °F 7.2 °F 19.4 °F 100% 29.87 in 0.5 mi NE 11.5 mph - N/A Snow Heavy Snow
3:15 AM 21.2 °F 10.1 °F 19.4 °F 93% 29.85 in 0.5 mi NE 10.4 mph - 0.01 in Snow Heavy Snow
3:34 AM 21.2 °F 10.1 °F 19.4 °F 93% 29.85 in 0.5 mi NE 10.4 mph - 0.01 in Snow Snow
3:55 AM 21.2 °F 9.5 °F 19.4 °F 93% 29.84 in 1.0 mi NNE 11.5 mph - N/A Snow Snow
4:15 AM 21.2 °F 9.5 °F 19.4 °F 93% 29.84 in 1.0 mi NNE 11.5 mph - N/A Snow Snow
4:34 AM 21.2 °F 9.5 °F 19.4 °F 93% 29.83 in 2.0 mi NNE 11.5 mph - 0.01 in Snow Light Snow
4:55 AM 21.2 °F 9.5 °F 19.4 °F 93% 29.83 in 1.5 mi NNE 11.5 mph - N/A Snow Light Snow
5:15 AM 21.2 °F 10.1 °F 19.4 °F 93% 29.83 in 1.8 mi NNE 10.4 mph - N/A Snow Light Snow
5:34 AM 21.2 °F 10.1 °F 19.4 °F 93% 29.83 in 3.0 mi NNE 10.4 mph - N/A Snow Light Snow
5:55 AM 21.2 °F 10.9 °F 19.4 °F 93% 29.83 in 2.5 mi NNE 9.2 mph - N/A Snow Light Snow
6:15 AM 21.2 °F 10.1 °F 19.4 °F 93% 29.83 in 2.0 mi NNE 10.4 mph - N/A Snow Light Snow
6:34 AM 21.2 °F 9.5 °F 19.4 °F 93% 29.83 in 4.0 mi NNE 11.5 mph - N/A Snow Light Snow
6:55 AM 21.2 °F 10.9 °F 19.4 °F 93% 29.83 in 4.0 mi NNE 9.2 mph - N/A Snow Light Snow
7:34 AM 21.2 °F 10.9 °F 19.4 °F 93% 29.83 in 1.0 mi NNE 9.2 mph - N/A Snow Light Snow
7:55 AM 21.2 °F 10.9 °F 19.4 °F 93% 29.82 in 1.8 mi NNE 9.2 mph - N/A Snow Light Snow
8:15 AM 21.2 °F 9.5 °F 19.4 °F 93% 29.82 in 1.8 mi NNE 11.5 mph - N/A Snow Light Snow
8:34 AM 21.2 °F 10.1 °F 19.4 °F 93% 29.83 in 2.5 mi NE 10.4 mph - N/A Snow Light Snow
8:55 AM 21.2 °F 8.9 °F 21.2 °F 100% 29.83 in 4.0 mi NE 12.7 mph - N/A Snow Light Snow
9:14 AM 21.2 °F 8.9 °F 19.4 °F 93% 29.83 in 4.0 mi NE 12.7 mph - N/A Snow Light Snow
9:35 AM 23.0 °F 12.4 °F 21.2 °F 93% 29.83 in 4.0 mi NNE 10.4 mph - N/A Snow Light Snow
9:54 AM 23.0 °F 12.4 °F 21.2 °F 93% 29.82 in 7.0 mi NNE 10.4 mph - N/A Snow Light Snow
10:14 AM 24.8 °F 14.0 °F 21.2 °F 86% 29.82 in 7.0 mi NE 11.5 mph - N/A   Overcast
10:35 AM 24.8 °F 15.3 °F 21.2 °F 86% 29.82 in 10.0 mi NE 9.2 mph - N/A   Scattered Clouds
10:54 AM 24.8 °F 14.6 °F 21.2 °F 86% 29.83 in 10.0 mi NNE 10.4 mph - N/A   Clear
11:15 AM 24.8 °F 16.1 °F 21.2 °F 86% 29.83 in 7.0 mi NE 8.1 mph - N/A   Clear
11:35 AM 24.8 °F 17.9 °F 21.2 °F 86% 29.83 in 2.5 mi NNE 5.8 mph - N/A   Scattered Clouds
11:54 AM 24.8 °F 17.9 °F 21.2 °F 86% 29.84 in 5.0 mi North 5.8 mph - N/A   Scattered Clouds
12:15 PM 24.8 °F 19.1 °F 21.2 °F 86% 29.84 in 4.0 mi North 4.6 mph - N/A Snow Light Snow
12:35 PM 24.8 °F 19.1 °F 21.2 °F 86% 29.83 in 2.0 mi NNW 4.6 mph - N/A Snow Light Snow
12:54 PM 26.6 °F 21.2 °F 21.2 °F 80% 29.83 in 1.5 mi NNW 4.6 mph - N/A Snow Light Snow
1:14 PM 26.6 °F 20.0 °F 21.2 °F 80% 29.82 in 3.0 mi NNW 5.8 mph - N/A Snow Light Snow
1:35 PM 26.6 °F 20.0 °F 21.2 °F 80% 29.83 in 4.0 mi North 5.8 mph - N/A   Overcast
1:55 PM 26.6 °F 19.1 °F 21.2 °F 80% 29.82 in 10.0 mi NNW 6.9 mph - N/A   Overcast
2:14 PM 26.6 °F 21.2 °F 21.2 °F 80% 29.83 in 10.0 mi NNW 4.6 mph - N/A   Overcast
2:35 PM 26.6 °F 20.0 °F 21.2 °F 80% 29.83 in 10.0 mi WNW 5.8 mph - N/A   Overcast
2:55 PM 26.6 °F 18.2 °F 21.2 °F 80% 29.83 in 10.0 mi WNW 8.1 mph - N/A   Overcast
3:14 PM 26.6 °F 19.1 °F 21.2 °F 80% 29.84 in 10.0 mi WNW 6.9 mph - N/A   Overcast
3:34 PM 26.6 °F 19.1 °F 21.2 °F 80% 29.84 in 7.0 mi WNW 6.9 mph - N/A Snow Light Snow
3:55 PM 26.6 °F 19.1 °F 21.2 °F 80% 29.85 in 10.0 mi WNW 6.9 mph - N/A Snow Light Snow
4:15 PM 26.6 °F 18.2 °F 21.2 °F 80% 29.85 in 7.0 mi WNW 8.1 mph - N/A Snow Light Snow
4:34 PM 24.8 °F 16.1 °F 21.2 °F 86% 29.85 in 7.0 mi West 8.1 mph - N/A Snow Light Snow
4:54 PM 24.8 °F 16.9 °F 21.2 °F 86% 29.86 in 7.0 mi WNW 6.9 mph - N/A Snow Light Snow
5:15 PM 24.8 °F 15.3 °F 21.2 °F 86% 29.86 in 7.0 mi WNW 9.2 mph - N/A Snow Light Snow
5:34 PM 24.8 °F 16.1 °F 21.2 °F 86% 29.86 in 10.0 mi WNW 8.1 mph - N/A Snow Light Snow
5:55 PM 23.0 °F 15.8 °F 21.2 °F 93% 29.87 in 7.0 mi WNW 5.8 mph - N/A Snow Light Snow
6:14 PM 23.0 °F 13.9 °F 21.2 °F 93% 29.87 in 10.0 mi WNW 8.1 mph - N/A Snow Light Snow
6:34 PM 23.0 °F 15.8 °F 21.2 °F 93% 29.88 in 10.0 mi WNW 5.8 mph - N/A Snow Light Snow
6:55 PM 23.0 °F 15.8 °F 21.2 °F 93% 29.88 in 10.0 mi WNW 5.8 mph - N/A Snow Light Snow
7:14 PM 23.0 °F 18.4 °F 21.2 °F 93% 29.88 in 10.0 mi WNW 3.5 mph - N/A Snow Light Snow
7:35 PM 21.2 °F 14.9 °F 21.2 °F 100% 29.88 in 10.0 mi West 4.6 mph - N/A Snow Light Snow
7:54 PM 21.2 °F 14.9 °F 21.2 °F 100% 29.88 in 10.0 mi West 4.6 mph - N/A   Overcast
8:14 PM 21.2 °F 14.9 °F 21.2 °F 100% 29.88 in 10.0 mi West 4.6 mph - N/A Snow Light Snow
8:35 PM 21.2 °F 13.6 °F 21.2 °F 100% 29.88 in 7.0 mi West 5.8 mph - N/A Snow Light Snow
8:54 PM 21.2 °F 13.6 °F 21.2 °F 100% 29.88 in 7.0 mi West 5.8 mph - N/A Snow Light Snow
9:14 PM 21.2 °F 13.6 °F 19.4 °F 93% 29.88 in 7.0 mi West 5.8 mph - N/A Snow Light Snow
9:35 PM 21.2 °F 12.6 °F 19.4 °F 93% 29.88 in 7.0 mi West 6.9 mph - N/A   Overcast
9:54 PM - - - N/A% 29.88 in 7.0 mi West 6.9 mph - N/A   Overcast
10:14 PM 19.4 °F 10.4 °F 19.4 °F 100% 29.87 in 7.0 mi West 6.9 mph - N/A   Overcast
10:35 PM 19.4 °F 11.5 °F 19.4 °F 100% 29.87 in 7.0 mi West 5.8 mph - N/A Snow Light Snow
10:54 PM 19.4 °F 11.5 °F 17.6 °F 93% 29.87 in 7.0 mi West 5.8 mph - N/A Snow Light Snow
11:14 PM 19.4 °F 11.5 °F 17.6 °F 93% 29.87 in 10.0 mi West 5.8 mph - N/A   Overcast
11:35 PM 19.4 °F 12.8 °F 17.6 °F 93% 29.87 in 7.0 mi West 4.6 mph - N/A Snow Light Snow
11:54 PM 19.4 °F 12.8 °F 17.6 °F 93% 29.87 in 7.0 mi West 4.6 mph - N/A Snow Light Snow